FW7828 Weather Reports


time (UTC)temp
F
wind
direction
speed
knots
gust
knots
rain 1hr
in
rain 24hr
in
rain mn
in
humidity
%
barometer
mb
20260510213947 77 111 0.9 1.7 0.00 0.00 0.00 71 1012.0
20260510213444 77 108 0.9 1.7 0.00 0.00 0.00 71 1012.2
20260510212940 77 96 1.7 1.7 0.00 0.00 0.00 69 1012.1
20260510212437 77 90 0.9 1.7 0.00 0.00 0.00 69 1012.2
20260510211933 77 104 0.9 0.9 0.00 0.00 0.00 70 1012.3
20260510211431 77 98 0.9 0.9 0.00 0.00 0.00 71 1012.3
20260510210925 77 93 0.9 1.7 0.00 0.00 0.00 71 1012.3
20260510210420 77 84 0.9 1.7 0.00 0.00 0.00 71 1012.2
20260510205919 77 97 1.7 1.7 0.00 0.00 0.00 72 1012.3
20260510205415 78 70 2.6 2.6 0.00 0.00 0.00 74 1012.3
20260510204911 79 49 0.0 0.9 0.00 0.00 0.00 71 1012.2
20260510204408 80 60 0.9 0.9 0.00 0.00 0.00 71 1012.2
20260510203905 80 80 0.9 1.7 0.00 0.00 0.00 68 1011.9
20260510203403 80 32 0.0 0.9 0.00 0.00 0.00 68 1012.1
20260510202902 79 91 0.9 0.9 0.00 0.00 0.00 69 1012.0
20260510202358 78 80 1.7 1.7 0.00 0.00 0.00 67 1012.0
20260510201855 78 124 1.7 1.7 0.00 0.00 0.00 62 1012.3
20260510201352 79 105 2.6 2.6 0.00 0.00 0.00 61 1012.6
20260510200849 79 84 1.7 2.6 0.00 0.00 0.00 62 1012.6
20260510200348 79 84 1.7 1.7 0.00 0.00 0.00 61 1012.3
20260510195843 80 127 1.7 1.7 0.00 0.00 0.00 55 1012.4
20260510195340 79 102 1.7 1.7 0.00 0.00 0.00 56 1012.6
20260510194834 79 147 2.6 2.6 0.00 0.00 0.00 59 1012.6
20260510194331 80 124 2.6 2.6 0.00 0.00 0.00 59 1012.6
20260510193827 80 86 2.6 2.6 0.00 0.00 0.00 57 1012.6
20260510193322 81 139 1.7 1.7 0.00 0.00 0.00 52 1012.5
20260510192818 80 114 0.9 0.9 0.00 0.00 0.00 54 1012.7
20260510192313 80 125 1.7 1.7 0.00 0.00 0.00 59 1012.9
20260510191810 81 126 1.7 1.7 0.00 0.00 0.00 52 1013.0
20260510191305 82 137 0.9 1.7 0.00 0.00 0.00 51 1012.8
20260510190804 82 94 2.6 2.6 0.00 0.00 0.00 50 1012.8
20260510190301 81 84 0.9 0.9 0.00 0.00 0.00 47 1013.0
20260510185757 81 84 0.9 1.7 0.00 0.00 0.00 45 1013.1
20260510185255 81 135 1.7 1.7 0.00 0.00 0.00 47 1012.9
20260510184752 81 117 1.7 1.7 0.00 0.00 0.00 50 1013.1
20260510184248 80 107 2.6 2.6 0.00 0.00 0.00 45 1013.0
20260510183743 81 140 2.6 2.6 0.00 0.00 0.00 43 1013.2
20260510183238 81 110 1.7 1.7 0.00 0.00 0.00 46 1013.1
20260510182735 81 132 2.6 4.3 0.00 0.00 0.00 45 1012.8
20260510182230 81 114 0.9 1.7 0.00 0.00 0.00 42 1012.9
20260510181727 80 133 1.7 1.7 0.00 0.00 0.00 46 1013.2
20260510181225 81 147 2.6 4.3 0.00 0.00 0.00 39 1013.1
20260510180720 81 93 1.7 1.7 0.00 0.00 0.00 46 1013.2
20260510180218 81 139 1.7 1.7 0.00 0.00 0.00 40 1013.1
20260510175714 80 94 0.9 0.9 0.00 0.00 0.00 42 1013.2
20260510175210 80 138 1.7 1.7 0.00 0.00 0.00 43 1013.4
20260510174707 80 81 1.7 2.6 0.00 0.00 0.00 40 1013.5
20260510174205 80 122 1.7 1.7 0.00 0.00 0.00 41 1013.5
20260510173700 80 132 1.7 1.7 0.00 0.00 0.00 41 1013.5
20260510173157 80 131 1.7 2.6 0.00 0.00 0.00 45 1013.5
20260510172652 80 55 2.6 4.3 0.00 0.00 0.00 44 1013.4
20260510172149 80 123 1.7 2.6 0.00 0.00 0.00 47 1013.3
20260510171646 80 89 1.7 1.7 0.00 0.00 0.00 41 1013.4
20260510171143 80 138 0.9 1.7 0.00 0.00 0.00 44 1013.5
20260510170639 80 138 0.9 0.9 0.00 0.00 0.00 42 1013.6
20260510170136 80 121 1.7 2.6 0.00 0.00 0.00 45 1013.7
20260510165631 80 117 1.7 1.7 0.00 0.00 0.00 45 1013.8
20260510165127 80 107 1.7 1.7 0.00 0.00 0.00 54 1013.7
20260510164625 80 59 0.9 1.7 0.00 0.00 0.00 56 1013.7
20260510164122 79 139 0.9 0.9 0.00 0.00 0.00 56 1013.8
20260510163617 79 121 1.7 1.7 0.00 0.00 0.00 57 1013.8
20260510163114 78 179 0.9 0.9 0.00 0.00 0.00 61 1013.7
20260510162608 77 165 1.7 1.7 0.00 0.00 0.00 66 1013.8
20260510162105 77 172 1.7 1.7 0.00 0.00 0.00 68 1013.7
20260510161600 77 215 1.7 1.7 0.00 0.00 0.00 67 1013.8
20260510161058 76 187 0.9 0.9 0.00 0.00 0.00 70 1014.0
20260510160555 76 102 0.9 0.9 0.00 0.00 0.00 72 1013.9
20260510160054 77 153 0.9 1.7 0.00 0.00 0.00 72 1013.9
20260510155551 75 268 0.0 0.0 0.00 0.00 0.00 71 1014.0
20260510155047 73 155 0.9 1.7 0.00 0.00 0.00 78 1013.7
20260510154543 73 180 2.6 2.6 0.00 0.00 0.00 80 1013.8
20260510154038 73 174 2.6 2.6 0.00 0.00 0.00 82 1013.9
20260510153533 73 169 2.6 4.3 0.00 0.00 0.00 81 1014.0
20260510153031 73 166 2.6 2.6 0.00 0.00 0.00 81 1013.9
20260510152527 73 160 1.7 1.7 0.00 0.00 0.00 82 1014.3
20260510152023 73 164 2.6 2.6 0.00 0.00 0.00 81 1014.0
20260510151515 74 96 0.9 1.7 0.00 0.00 0.00 80 1014.1
20260510151012 74 166 1.7 1.7 0.00 0.00 0.00 81 1014.4
20260510150507 73 176 1.7 1.7 0.00 0.00 0.00 80 1014.1
20260510150004 72 167 1.7 2.6 0.00 0.00 0.00 83 1014.3
20260510145501 72 181 1.7 1.7 0.00 0.00 0.00 82 1014.3
20260510144957 72 112 0.9 1.7 0.00 0.00 0.00 82 1014.1
20260510144454 71 163 2.6 2.6 0.00 0.00 0.00 82 1014.1
20260510143949 71 135 2.6 2.6 0.00 0.00 0.00 83 1014.1
20260510143445 71 174 2.6 2.6 0.00 0.00 0.00 83 1014.1
20260510142942 71 107 1.7 1.7 0.00 0.00 0.00 83 1013.8
20260510142439 71 136 1.7 1.7 0.00 0.00 0.00 83 1013.9
20260510141935 71 154 1.7 2.6 0.00 0.00 0.00 83 1013.8
20260510141432 70 174 0.9 1.7 0.00 0.00 0.00 84 1013.7
20260510140929 70 155 1.7 1.7 0.00 0.00 0.00 84 1013.7
20260510140426 70 89 1.7 1.7 0.00 0.00 0.00 84 1013.6
20260510135925 70 165 1.7 1.7 0.00 0.00 0.00 85 1013.6
20260510135421 69 164 2.6 2.6 0.00 0.00 0.00 85 1013.5
20260510134918 69 152 0.9 0.9 0.00 0.00 0.00 85 1013.8
20260510134415 69 170 1.7 4.3 0.00 0.00 0.00 86 1013.6
20260510133911 70 113 1.7 2.6 0.00 0.00 0.00 85 1013.7
20260510133408 70 146 2.6 2.6 0.00 0.00 0.00 85 1013.5
20260510132902 69 178 1.7 1.7 0.00 0.00 0.00 87 1013.5
20260510132356 69 172 2.6 4.3 0.00 0.00 0.00 87 1013.6
20260510131852 69 160 0.9 1.7 0.00 0.00 0.00 87 1013.5
20260510131350 69 173 1.7 1.7 0.00 0.00 0.00 88 1013.6
20260510130846 68 164 1.7 1.7 0.00 0.00 0.00 89 1013.5
20260510130343 68 183 0.9 1.7 0.00 0.00 0.00 89 1013.2
20260510125840 68 152 0.9 1.7 0.00 0.00 0.00 90 1013.5
20260510125336 67 84 0.9 0.9 0.00 0.00 0.00 91 1013.3
20260510124833 67 193 0.9 0.9 0.00 0.00 0.00 92 1013.2
20260510124330 67 295 0.0 0.0 0.00 0.00 0.00 93 1013.3
20260510123826 67 160 0.9 0.9 0.00 0.00 0.00 93 1013.3
20260510123321 67 132 0.9 0.9 0.00 0.00 0.00 93 1012.8
20260510122818 66 193 0.9 0.9 0.00 0.00 0.00 93 1013.1
20260510122313 66 133 0.0 0.0 0.00 0.00 0.00 94 1013.1
20260510121809 66 209 1.7 1.7 0.00 0.00 0.00 95 1012.8
20260510121302 66 149 0.0 0.0 0.00 0.00 0.00 96 1013.0
20260510120759 66 124 0.0 0.0 0.00 0.00 0.00 96 1013.0
20260510120255 66 16 0.0 0.0 0.00 0.00 0.00 96 1012.8
20260510115751 66 137 0.0 0.0 0.00 0.00 0.00 96 1012.8
20260510115249 66 100 0.0 0.0 0.00 0.00 0.00 96 1012.8
20260510114743 66 103 0.0 0.0 0.00 0.00 0.00 96 1012.7
20260510114242 65 135 0.0 0.0 0.00 0.00 0.00 96 1012.7
20260510113731 65 163 0.0 0.0 0.00 0.00 0.00 96 1012.9
20260510113228 65 232 0.0 0.0 0.00 0.00 0.00 96 1012.6
20260510112724 65 181 0.0 0.9 0.00 0.00 0.00 97 1012.6
20260510112222 65 167 0.0 0.0 0.00 0.00 0.00 97 1012.5
20260510111717 65 300 0.0 0.0 0.00 0.00 0.00 97 1012.6
20260510111215 65 198 0.0 0.0 0.00 0.00 0.00 97 1012.4
20260510110714 65 210 0.0 0.0 0.00 0.00 0.00 97 1012.5
20260510110212 65 222 0.0 0.0 0.00 0.00 0.00 97 1012.1
20260510105712 65 227 0.0 0.0 0.00 0.00 0.00 97 1012.5
20260510105207 65 255 0.0 0.0 0.00 0.00 0.00 97 1012.3
20260510104703 65 237 0.0 0.0 0.00 0.00 0.00 97 1012.1
20260510104201 65 249 0.0 0.0 0.00 0.00 0.00 97 1012.0
20260510103657 64 251 0.0 0.0 0.00 0.00 0.00 97 1011.9
20260510103154 64 259 0.0 0.0 0.00 0.00 0.00 97 1012.0
20260510102654 64 277 0.0 0.0 0.00 0.00 0.00 97 1011.9
20260510102150 64 277 0.0 0.0 0.00 0.00 0.00 97 1011.9
20260510101648 63 313 0.0 0.0 0.00 0.00 0.00 97 1011.8
20260510101146 63 284 0.0 0.0 0.00 0.00 0.00 97 1011.5
20260510100642 63 284 0.0 0.0 0.00 0.00 0.00 96 1011.2
20260510100139 63 334 0.0 0.0 0.00 0.00 0.00 96 1011.4
20260510095635 63 319 0.0 0.0 0.00 0.00 0.00 96 1011.4
20260510095130 63 319 0.0 0.0 0.00 0.00 0.00 96 1011.4
20260510094629 62 318 0.0 0.0 0.00 0.00 0.00 96 1011.3
20260510094125 62 317 0.0 0.0 0.00 0.00 0.00 96 1011.3
20260510093622 63 317 0.0 0.0 0.00 0.00 0.00 96 1011.2
20260510093119 63 316 0.0 0.0 0.00 0.00 0.00 96 1011.3
20260510092615 63 322 0.0 0.0 0.00 0.00 0.00 96 1011.3
20260510092115 63 323 0.0 0.0 0.00 0.00 0.00 96 1011.1
20260510091612 63 323 0.0 0.0 0.00 0.00 0.00 96 1011.0
20260510091108 63 314 0.0 0.0 0.00 0.00 0.00 96 1011.2
20260510090605 63 318 0.0 0.0 0.00 0.00 0.00 96 1010.9
20260510090101 63 328 0.0 0.0 0.00 0.00 0.00 96 1010.9
20260510085555 63 316 0.0 0.0 0.00 0.00 0.00 96 1011.0
20260510085052 63 305 0.0 0.0 0.00 0.00 0.00 96 1010.7
20260510084549 63 338 0.0 0.0 0.00 0.00 0.00 96 1010.8
20260510084046 63 324 0.0 0.0 0.00 0.00 0.00 96 1010.8
20260510083542 63 308 0.0 0.0 0.00 0.00 0.00 96 1011.0
20260510083038 63 306 0.0 0.0 0.00 0.00 0.00 96 1010.7
20260510082535 63 329 0.0 0.0 0.00 0.00 0.00 96 1010.6
20260510082031 63 315 0.0 0.0 0.00 0.00 0.00 96 1010.5
20260510081526 63 334 0.0 0.0 0.00 0.00 0.00 96 1010.9
20260510081022 63 323 0.0 0.0 0.00 0.00 0.00 96 1010.8
20260510080521 63 325 0.0 0.0 0.00 0.00 0.00 96 1010.7
20260510080018 64 327 0.0 0.0 0.00 0.00 0.00 96 1010.8
20260510075515 64 314 0.0 0.0 0.00 0.00 0.00 96 1010.8
20260510075012 64 322 0.0 0.0 0.00 0.00 0.00 96 1010.9
20260510074510 64 296 0.0 0.0 0.00 0.00 0.00 96 1010.6
20260510074005 65 268 0.0 0.0 0.00 0.00 0.00 96 1010.6
20260510073501 65 268 0.0 0.0 0.00 0.00 0.00 96 1010.6
20260510072958 64 332 0.0 0.0 0.00 0.00 0.00 96 1010.8
20260510072454 64 0 0.0 0.0 0.00 0.00 0.00 96 1010.6
20260510071950 64 7 0.0 0.0 0.00 0.00 0.00 96 1010.6
20260510071447 64 21 0.0 0.0 0.00 0.00 0.00 96 1010.5
20260510070945 64 7 0.0 0.0 0.00 0.00 0.00 96 1010.3
20260510070442 64 7 0.0 0.0 0.00 0.00 0.00 95 1010.1
20260510065937 65 7 0.0 0.0 0.00 0.00 0.00 95 1010.4
20260510065435 65 39 0.0 0.0 0.00 0.00 0.00 96 1010.4
20260510064930 65 11 0.0 0.0 0.00 0.00 0.00 95 1010.5
20260510064428 65 58 0.0 0.0 0.00 0.00 0.00 95 1010.5
20260510063925 65 58 0.0 0.0 0.00 0.00 0.00 95 1010.5
20260510063420 66 58 0.0 0.0 0.00 0.00 0.00 95 1010.4
20260510062919 66 59 0.0 0.0 0.00 0.00 0.00 95 1010.5
20260510062414 66 99 0.0 0.0 0.00 0.00 0.00 95 1010.4
20260510061910 65 355 0.0 0.0 0.00 0.00 0.00 95 1010.7
20260510061406 65 342 0.0 0.0 0.00 0.00 0.00 95 1010.5
20260510060903 65 352 0.0 0.0 0.00 0.00 0.00 95 1010.7
20260510060359 65 339 0.0 0.0 0.00 0.00 0.00 95 1010.6
20260510055856 65 327 0.0 0.0 0.00 0.00 0.00 95 1010.6
20260510055355 65 17 0.0 0.0 0.00 0.00 0.00 95 1010.4
20260510054854 65 19 0.0 0.0 0.00 0.00 0.00 95 1010.5
20260510054350 65 19 0.0 0.0 0.00 0.00 0.00 95 1010.7
20260510053845 66 18 0.0 0.0 0.00 0.00 0.00 95 1011.0
20260510053341 65 18 0.0 0.0 0.00 0.00 0.00 95 1011.0
20260510052838 65 359 0.0 0.0 0.00 0.00 0.00 95 1011.1
20260510052333 65 2 0.0 0.0 0.00 0.00 0.00 95 1010.9
20260510051830 66 17 0.0 0.0 0.00 0.00 0.00 94 1010.9
20260510051327 66 89 0.0 0.0 0.00 0.00 0.00 95 1011.0
20260510050824 66 337 0.0 0.0 0.00 0.00 0.00 94 1011.1
20260510050320 65 323 0.0 0.0 0.00 0.00 0.00 94 1011.1
20260510045817 65 332 0.0 0.0 0.00 0.00 0.00 94 1010.9
20260510045314 66 337 0.0 0.0 0.00 0.00 0.00 94 1011.2
20260510044811 65 331 0.0 0.0 0.00 0.00 0.00 94 1010.9
20260510044308 64 338 0.0 0.0 0.00 0.00 0.00 94 1011.2
20260510043804 64 327 0.0 0.0 0.00 0.00 0.00 94 1010.9
20260510043300 65 328 0.0 0.0 0.00 0.00 0.00 94 1010.6
20260510042758 64 335 0.0 0.0 0.00 0.00 0.00 94 1010.7
20260510042253 64 341 0.0 0.0 0.00 0.00 0.00 93 1010.8
20260510041750 64 332 0.0 0.0 0.00 0.00 0.00 93 1010.7
20260510041247 64 342 0.0 0.0 0.00 0.00 0.00 93 1010.7
20260510040745 64 341 0.0 0.0 0.00 0.00 0.00 93 1010.8
20260510040236 64 351 0.0 0.0 0.00 0.00 0.00 93 1010.7
20260510035731 64 358 0.0 0.0 0.00 0.00 0.00 93 1010.8
20260510035227 64 359 0.0 0.0 0.00 0.00 0.00 93 1010.6
20260510034723 64 41 0.0 0.0 0.00 0.00 0.00 92 1010.6
20260510034222 64 338 0.0 0.0 0.00 0.00 0.00 92 1010.5
20260510033717 64 337 0.0 0.0 0.00 0.00 0.00 92 1010.3
20260510033215 64 334 0.0 0.0 0.00 0.00 0.00 92 1010.6
20260510032711 64 341 0.0 0.0 0.00 0.00 0.00 92 1010.5
20260510032207 64 340 0.0 0.0 0.00 0.00 0.00 91 1010.4
20260510031702 64 340 0.0 0.0 0.00 0.00 0.00 91 1010.5
20260510031159 64 340 0.0 0.0 0.00 0.00 0.00 91 1010.2
20260510030658 65 342 0.0 0.0 0.00 0.00 0.00 91 1010.3
20260510030156 65 342 0.0 0.0 0.00 0.00 0.00 91 1010.3
20260510025653 65 341 0.0 0.0 0.00 0.00 0.00 91 1010.2
20260510025150 65 340 0.0 0.0 0.00 0.00 0.00 90 1010.2
20260510024647 66 330 0.0 0.0 0.00 0.00 0.00 90 1010.4
20260510024143 66 329 0.0 0.0 0.00 0.00 0.00 91 1010.6
20260510023639 65 335 0.0 0.0 0.00 0.00 0.00 90 1010.3
20260510023131 65 359 0.0 0.0 0.00 0.00 0.00 90 1010.2
20260510022631 66 326 0.0 0.0 0.00 0.00 0.00 89 1010.1
20260510022121 66 326 0.0 0.0 0.00 0.00 0.00 89 1010.1
20260510021616 66 325 0.0 0.0 0.00 0.00 0.00 89 1010.3
20260510021114 66 326 0.0 0.0 0.00 0.00 0.00 89 1010.2
20260510020608 66 335 0.0 0.0 0.00 0.00 0.00 88 1010.4
20260510020103 66 339 0.0 0.0 0.00 0.00 0.00 88 1010.3
20260510015600 66 339 0.0 0.0 0.00 0.00 0.00 88 1010.0
20260510015056 66 339 0.0 0.0 0.00 0.00 0.00 88 1010.2
20260510014551 66 0 0.0 0.0 0.00 0.00 0.00 87 1010.3
20260510014049 66 320 0.0 0.0 0.00 0.00 0.00 87 1010.2
20260510013544 66 319 0.0 0.0 0.00 0.00 0.00 87 1010.1
20260510013040 66 329 0.0 0.0 0.00 0.00 0.00 87 1010.2
20260510012539 66 344 0.0 0.0 0.00 0.00 0.00 87 1010.1
20260510012037 67 347 0.0 0.0 0.00 0.00 0.00 87 1010.2
20260510011536 67 336 0.0 0.0 0.00 0.00 0.00 87 1010.3
20260510011032 67 310 0.0 0.0 0.00 0.00 0.00 87 1010.0
20260510010529 67 333 0.0 0.9 0.00 0.00 0.00 86 1010.0
20260510010026 67 330 0.0 0.0 0.00 0.00 0.00 86 1010.1
20260510005521 68 334 0.0 0.0 0.00 0.00 0.00 85 1010.0
20260510005020 68 332 0.0 0.9 0.00 0.00 0.00 86 1010.0
20260510004517 67 350 0.9 0.9 0.00 0.00 0.00 87 1010.0
20260510004015 67 293 0.0 0.0 0.00 0.00 0.00 87 1009.8
20260510003511 67 333 0.0 0.0 0.00 0.00 0.00 87 1009.5
20260510003007 67 344 0.9 0.9 0.00 0.00 0.00 86 1009.5
20260510002503 68 334 0.0 0.0 0.00 0.00 0.00 86 1009.5
20260510001959 68 234 0.9 0.9 0.00 0.00 0.00 86 1009.4
20260510001457 68 355 0.0 0.0 0.00 0.00 0.00 86 1009.4
20260510000955 68 338 0.0 0.0 0.00 0.00 0.00 85 1009.4
20260510000450 68 340 0.0 0.0 0.00 0.00 0.00 85 1009.4
20260509235947 69 355 0.0 0.0 0.00 0.00 0.00 84 1009.2
20260509235444 69 338 0.0 0.0 0.00 0.00 0.00 84 1009.7
20260509234940 70 337 0.0 0.0 0.00 0.00 0.00 83 1009.4
20260509234437 70 337 0.0 0.0 0.00 0.00 0.00 82 1009.1
20260509233935 71 337 0.0 0.0 0.00 0.00 0.00 81 1009.2
20260509233432 71 337 0.0 0.0 0.00 0.00 0.00 80 1009.1
20260509232928 71 274 0.0 0.0 0.00 0.00 0.00 80 1009.2
20260509232426 71 339 0.0 0.0 0.00 0.00 0.00 79 1009.2
20260509231921 71 340 0.0 0.0 0.00 0.00 0.00 78 1009.3
20260509231418 72 301 0.0 0.0 0.00 0.00 0.00 79 1009.2
20260509230916 72 20 0.9 0.9 0.00 0.00 0.00 79 1009.1
20260509230413 72 333 0.0 0.0 0.00 0.00 0.00 80 1009.1
20260509225908 72 285 0.0 0.0 0.00 0.00 0.00 80 1009.3
20260509225406 72 269 0.0 0.0 0.00 0.00 0.00 79 1009.0
20260509224901 72 49 0.0 0.0 0.00 0.00 0.00 78 1008.8
20260509224357 73 109 0.0 0.0 0.00 0.00 0.00 78 1009.2
20260509223855 73 201 0.0 0.0 0.00 0.00 0.00 78 1009.1
20260509223351 73 182 0.0 0.0 0.00 0.00 0.00 78 1009.0
20260509222848 73 176 1.7 1.7 0.00 0.00 0.00 77 1009.2
20260509222343 73 236 0.0 0.0 0.00 0.00 0.00 76 1009.1
20260509221838 73 241 0.0 0.0 0.00 0.00 0.00 75 1009.2
20260509221336 73 267 0.0 0.0 0.00 0.00 0.00 75 1009.2
20260509220831 73 233 0.0 0.9 0.00 0.00 0.00 76 1008.9
20260509220328 73 250 0.0 0.0 0.00 0.00 0.00 74 1009.1
20260509215823 73 274 0.0 0.0 0.00 0.00 0.00 72 1008.9
20260509215320 73 254 0.0 0.0 0.00 0.00 0.00 72 1009.0
20260509214817 73 47 0.0 0.9 0.00 0.00 0.00 69 1009.0
20260509214314 74 236 0.0 0.0 0.00 0.00 0.00 69 1009.0